Hourly Data Report for October 30, 2018

MONTREAL INTL A
QUEBEC
Current Station Operator: NAVCAN

45°28'14.000" N
73°44'27.000" W
36.00 m
7025251
71627
YUL

Download Data

Hourly Data (October 2018)
Hourly Data Report for October 30, 2018
TIME
LST
Temp Definition
°C
Dew Point Definition
°C
Rel Hum Definition
%
Precip. Amount Definition
mm

Wind Dir Definition
10's deg

Wind Spd Definition
km/h
Visibility Definition
km
Stn Press Definition
kPa
Hmdx Definition


Wind Chill Definition


Weather Definition


00:00 2.8 0.5 85   28 24 24.1 100.65     LegendNANA
01:00 1.8 0.0 88   25 15 24.1 100.71     Mainly Clear
02:00 1.6 0.4 91   25 13 24.1 100.74     LegendNANA
03:00 2.0 0.4 89   26 12 24.1 100.76     LegendNANA
04:00 2.4 0.2 86   27 20 24.1 100.80     Cloudy
05:00 2.3 0.0 85   27 22 24.1 100.86     LegendNANA
06:00 1.9 -0.2 86   27 20 24.1 100.92     LegendNANA
07:00 1.9 -0.3 85   27 17 24.1 100.98     Cloudy
08:00 2.7 -0.4 80   27 17 24.1 101.06     LegendNANA
09:00 3.3 0.0 79   28 18 24.1 101.09     LegendNANA
10:00 3.8 -0.8 72   27 24 24.1 101.15     Mostly Cloudy
11:00 3.9 -0.8 71   28 18 24.1 101.18     LegendNANA
12:00 4.5 -0.5 70   26 23 24.1 101.18     LegendNANA
13:00 4.0 -1.3 68   27 24 24.1 101.22     Cloudy
14:00 4.0 -1.3 68   25 26 24.1 101.27     LegendNANA
15:00 3.9 -1.7 67   25 25 24.1 101.34     LegendNANA
16:00 3.9 -1.7 67   25 17 24.1 101.32     Mostly Cloudy
17:00 3.5 -1.0 72   24 17 24.1 101.37     LegendNANA
18:00 3.4 -1.2 72   24 18 24.1 101.47     LegendNANA
19:00 2.8 -1.5 73   24 15 24.1 101.45     Mostly Cloudy
20:00 1.6 -1.9 78   27 8 24.1 101.46     LegendNANA
21:00 1.8 -1.6 78   23 8 24.1 101.46     LegendNANA
22:00 0.0 -2.3 85   24 9 24.1 101.45   -3 Clear
23:00 0.9 -1.6 84   22 3 24.1 101.43     LegendNANA

Notes on Data Quality.

Legend

  • E = Estimated
  • M = Missing
  • NA = Not Available*
  • [empty] = Indicates an unobserved value
Date modified: